Regional Weather Roundup
Issued by NWS

Home | Current Version | Previous Version | Text Only | Print | Product List | Glossary On
Versions: 1 2 3 4 5 6 7 8 9 10 11 12 13 14 15 16 17 18 19 20 21 22 23 24 25 26 27 28 29 30 31 32 33 34 35 36 37 38 39 40 41 42 43 44 45 46 47 48 49 50
000
ASUS44 KEWX 282011
RWRTX
SOUTH TEXAS REGIONAL WEATHER ROUNDUP
NATIONAL WEATHER SERVICE AUSTIN/SAN ANTONIO TX
300 PM CDT THU JUL 28 2016

NOTE: "FAIR" INDICATED FEW OR NO CLOUDS BELOW 12,000 FEET WITH NO
SIGNIFICANT WEATHER AND/OR OBSTRUCTIONS TO VISIBILITY.

* - THESE STATIONS ARE NOT NWS OR FAA STATIONS...AND ARE NOT SUBJECT
    TO NWS AND FAA QUALITY CONTROL.

TXZ171-172-183>190-282100-
TEXAS HILL COUNTRY AND EDWARDS PLATEAU

CITY           SKY/WX    TMP DP  RH WIND       PRES   REMARKS
JUNCTION       SUNNY     93  61  34 SE13      29.99F HX  93
*LLANO         MOSUNNY   97  64  34 W3        29.99F HX  99
BURNET         MOSUNNY   94  62  34 S8        30.00F HX  94
*HORSESHOE BAY SUNNY     95  65  37 SE7       29.97F HX  97
*KERRVILLE     MOSUNNY   92  67  43 S10       30.01F HX  94
*FREDERICKSBRG MOSUNNY   92  60  34 SE6       30.00F HX  92
*ROCKSPRINGS   MOSUNNY   90  66  45 S10       30.05F HX  92
*BOERNE STAGE  MOSUNNY   90  68  48 SE9       30.00F HX  93
*CASTROVILLE   MOSUNNY   94  67  40 SE3       29.96F HX  98
HONDO          MOSUNNY   94  70  45 SE10      29.96F HX 100
*UVALDE        MOSUNNY   92  72  52 SE6       29.95F HX  99
DEL RIO        MOSUNNY   95  68  41 E10       29.93F HX  99
LAUGHLIN AFB   NOT AVBL
CARRIZO SPRGS  CLOUDY    97  68  38 S7G18     29.90F HX 101
*EAGLE PASS      N/A    N/A N/A N/A MISG      29.95S
$$

TXZ173-191>194-202-209-217>225-228-282100-
CENTRAL AND SOUTH CENTRAL TEXAS

CITY           SKY/WX    TMP DP  RH WIND       PRES   REMARKS
GEORGETOWN     MOSUNNY   95  66  38 SE7       29.96F HX  98
AUSTIN/BERGSTM PTSUNNY   95  71  45 S8        29.95F HX 102
AUSTIN/MABRY   MOSUNNY   95  71  45 VRB5      29.97F HX 102
*AUSTIN/EXEC     N/A     93  70  46 S6        29.97S HX  99
*LAGO VISTA    MOSUNNY   94  62  34 S7        29.99F HX  95
SAN MARCOS     MOSUNNY   95  72  46 S8        29.97F HX 103
NEW BRAUNFELS    N/A     95  71  45 W8        29.94F HX 102
RANDOLPH AFB   NOT AVBL
PT SAN ANTONIO NOT AVBL
SAN ANTONIO    PTSUNNY   93  69  45 SW9       29.95F HX  98
STINSON FIELD  SUNNY     95  71  45 S9        29.92F HX 102
*PLEASANTON    MOSUNNY   94  67  40 SE3       29.92F HX  98
*LA GRANGE     TSTM      75  73  95 E6        30.01F
*GIDDINGS      HVY RAIN  74  72  93 SW7G18    30.09R
*GONZALES      LGT RAIN  78  77  96 E7        29.99F
$$

TXZ163>164-176>182-195>201-210>213-226-227-235-282100-
SOUTHEAST TEXAS

CITY           SKY/WX    TMP DP  RH WIND       PRES   REMARKS
COLLEGE STN    LGT RAIN  80  73  79 S24G33    30.01R
*BRYAN         HVY RAIN  78  76  94 S21G31    30.03R
*CALDWELL      DRIZZLE   81  72  74 SE20G28   30.02R
*CROCKETT      CLOUDY    93  72  49 SW7       29.99S HX 100
*BRENHAM       TSTM      76  74  93 SW3       30.06S
HUNTSVILLE     HVY RAIN  78  75  90 S6        30.02R FOG
CONROE         CLOUDY    80  71  74 SW7       30.03S
HOUSTON BUSH   LGT RAIN  79  74  84 CALM      30.01F
HOUSTON HOBBY  CLOUDY    83  72  69 W6        30.00F
*HOUSTON SW AP CLOUDY    82  74  77 CALM      30.01F
PEARLAND       CLOUDY    88  72  58 VRB7      30.01F HX  94
HOUSTON HOOKS  LGT RAIN  76  74  93 CALM      30.02F
ELLINGTON FLD  PTSUNNY   90  73  58 W5        30.03  HX  98
SUGAR LAND     LGT RAIN  79  72  79 S3        30.01F
*HOUSTON EXEC  CLOUDY    81  73  78 CALM      30.03S
*CLEVELAND MUN LGT RAIN  76  75  97 W5        30.01F
*WHARTON       CLOUDY    82  74  78 CALM      30.00F
*COLUMBUS      FAIR      77  74  90 N9        30.02R
*EAGLE LAKE    CLOUDY    85  71  63 W3        30.01R
$$

TXZ214>216-236>238-282100-
THE UPPER TEXAS COAST

CITY           SKY/WX    TMP DP  RH WIND       PRES   REMARKS
*ORANGE        CLOUDY    89  74  62 SW12      30.01F HX  98
PORT ARTHUR    CLOUDY    80  72  76 NW12      30.00S
GALVESTON      CLOUDY    87  75  67 W6        30.00F HX  96
ANGLETON       CLOUDY    84  77  79 CALM      29.99F HX  94
*BAY CITY      CLOUDY    78  76  91 CALM      30.00F
PALACIOS       CLOUDY    83  76  79 SE5       29.98F HX  91
$$

TXZ229>234-239>247-282100-
TEXAS COASTAL BEND AND RIO GRANDE PLAINS

CITY           SKY/WX    TMP DP  RH WIND       PRES   REMARKS
VICTORIA       CLOUDY    82  77  84 E9        29.97F HX  90
*BEEVILLE      TSTM      73  73 100 E12       29.97F
ROCKPORT       SUNNY     91  76  61 SE15      29.95F HX 103
*PORT ARANSAS  CLOUDY    90  79  69 SE14      29.96F HX 105
*PORT LAVACA   CLOUDY    83  78  83 CALM      29.97F HX  94
*INGLESIDE     MOSUNNY   94  77  58 SE17G23   29.96S HX 108
CORPUS CHRISTI PTSUNNY   94  75  54 SE15G26   29.94F HX 105
CORPUS NAS     PTSUNNY   92  77  61 S8        29.95F HX 105
*ROBSTOWN      MOSUNNY   98  73  44 SE16G24   29.93F HX 107
ALICE          MOSUNNY   98  69  38 SE16G24   29.90F HX 104
KINGSVILLE NAS PTSUNNY   97  79  56 SE20G30   29.91F HX 115
COTULLA        TSTM      84  71  65 E7        29.92F
*FAITH RANCH   MOSUNNY   99  64  32 SE13G18   29.90F HX 101
LAREDO         CLOUDY    97  68  38 SE10G20   29.89F HX 102
$$

TXZ248>255-282100-
DEEP SOUTH TEXAS

CITY           SKY/WX    TMP DP  RH WIND       PRES   REMARKS
BROWNSVILLE    MOSUNNY   95  74  50 SE21G28   29.94F HX 105
PORT ISABEL    MOSUNNY   93  76  57 SE21G28   29.93F HX 105
*SOUTH PADRE     N/A     90  79  70 SE10      29.96F HX 105
HARLINGEN      MOSUNNY  100  68  35 SE23G29   29.91F HX 105
*HEBBRONVILLE  PTSUNNY   99  63  30 S15G22    29.91F HX 100
MCALLEN        MOSUNNY  102  68  33 S16G28    29.90F HX 108
*WESLACO       PTSUNNY   93  15   6 S15G22    29.90F
FALFURRIAS     PTSUNNY   92  67  43 E16G24    29.90F HX  95
EDINBURG       MOSUNNY   93  68  43 E15       29.91S HX  97
*ZAPATA        PTSUNNY   99  62  29 S8G21     29.87F HX 100
$$

TXZ213>215-236>238-242>244-246-247-251-254-255-282100-
CMAN STATIONS

STATION/POSITION TIME  TEMP    WIND        PRES    WAVE
                       AIR SEA DIR/SP/G            HT/PER
                 (UTC) (F)     (DEG/KT/KT) (MB)    (FT/S)
SABINE PASS      1900   86 87  220/  8/ 12 1017.6
SEA RIM ST PARK  2000   87     210/  9/ 10 1016.2
NORTH JETTY/GLS  1900   86 87                N/A
MORGANS POINT    1900   82 87  300/  5/  7 1016.7
MISSION/ARANSAS  1900   87                 1016.0
PORT ARANSAS     2000   85 89  140/ 13/ 14 1014.8
MALAQUITE BEACH  1900   85 86  120/ 13/ 14 1015.3
PORT ISABEL      1900   87 86  170/ 10/ 14 1014.8
$$

GMZ080-GMZ150>470-282100-
OFFSHORE BUOY REPORTS

STATION/POSITION TIME  TEMP    WIND        PRES    WAVE
                       AIR SEA DIR/SP/G            HT/PER
                 (UTC) (F)     (DEG/KT/KT) (MB)    (FT/S)
20 E GALVESTON   1950   85 86  270/ 10/ 12 1016.0    3/ 6
90 E PT ARANSAS  1950   86 86  160/  8/  8 1015.6    3/ 7
35 NE PT MANSFLD 1950   85 85  160/ 10/ 12 1014.3    3/ 7
200 E PT ISABEL  1950   86 86  120/ 12/ 14 1015.6    3/ 6
$$




USA.gov is the U.S. government's official web portal to all federal, state and local government web resources and services.